Regional Weather Roundup
Issued by NWS Burlington, VT

Home | Current Version | Previous Version | Text Only | Print | Product List | Glossary On
Versions: 1 2 3 4 5 6 7 8 9 10 11 12 13 14 15 16 17 18 19 20 21 22 23 24 25 26 27 28 29 30 31 32 33 34 35 36 37 38 39 40 41 42 43 44 45 46 47 48 49 50
140
ASUS41 KBTV 261930
RWRBTV
VERMONT REGIONAL WEATHER ROUNDUP
NATIONAL WEATHER SERVICE BURLINGTON VT
300 PM EDT WED APR 26 2017

NOTE: "FAIR" INDICATES FEW OR NO CLOUDS BELOW 12,000 FEET WITH NO
SIGNIFICANT WEATHER AND/OR OBSTRUCTIONS TO VISIBILITY.

* THESE REPORTS ARE NOT UNDER NWS QUALITY CONTROL AND/OR DO NOT
  REPORT WEATHER SUCH AS PRECIPITATION AND FOG.

VTZ001>019-262000-
_____VERMONT_____


CITY           SKY/WX    TMP DP  RH WIND       PRES   REMARKS
BURLINGTON     CLOUDY    69  54  58 VRB6      29.82F
MONTPELIER     CLOUDY    56  55  97 CALM      29.92F
MORRISVILLE    CLOUDY    61  52  72 CALM      29.89F
ST. JOHNSBURY*   N/A     62  55  77 MISG      29.87S
LYNDONVILLE*   CLOUDY    63  54  74 CALM      29.90F
MIDDLEBURY*    CLOUDY    64  52  64 SE9G17    29.84S
RUTLAND*       CLOUDY    62  53  72 SE12      29.85S
SPRINGFIELD    LGT RAIN  56  52  86 NE5       29.88S
HIGHGATE*      FAIR      70  57  64 N5        29.82F
NEWPORT*       FAIR      64  56  75 E6        29.88F
BENNINGTON     CLOUDY    68  55  63 E12       29.81S
SUTTON*          N/A     63 N/A N/A MISG        N/A

_____LAKE CHAMPLAIN_____


CITY           SKY/WX    TMP DP  RH WIND       PRES   REMARKS
BURTON ISLAND*   N/A     59  54  82 E1          N/A

$$

NYZ007-026>031-035-052-083-087-262000-
_____NORTHERN NEW YORK_____


CITY           SKY/WX    TMP DP  RH WIND       PRES   REMARKS
PLATTSBURGH    MOSUNNY   65  52  62 SE9       29.82F
SARANAC LAKE   CLOUDY    67  57  70 VRB7      29.80S
MASSENA        CLOUDY    64  55  72 NE10      29.82F
OGDENSBURG*    FAIR      70  57  62 N9        29.78F
POTSDAM*       CLOUDY    66  59  77 NE9       29.79F
WATERTOWN      PTSUNNY   72  58  61 NW6       29.75F
FT DRUM        CLOUDY    70  57  64 NE3       29.76F
ALBANY         PTSUNNY   66  56  70 N3        29.80F
GLENS FALLS    CLOUDY    69  55  60 NE8       29.80F

$$
NHZ002-005-011-262000-
_____NEW HAMPSHIRE_____


CITY           SKY/WX    TMP DP  RH WIND       PRES   REMARKS
LEBANON        CLOUDY    58  53  84 NE7       29.87F
KEENE          LGT RAIN  55  53  93 N6        29.86
MT WASHINGTON  FOG       45  45 100 S41G51      N/A  VSB 1/16
PLYMOUTH       CLOUDY    54  52  93 CALM      29.90F
WHITEFIELD     CLOUDY    60  50  69 E13       29.89S

$$

_____REGIONAL QUEBEC LOCATIONS_____


CITY           SKY/WX    TMP DP  RH WIND       PRES   REMARKS
MONTREAL       PTSUNNY   59  54  82 NE13G21   29.84F
QUEBEC CITY    DRIZZLE   50  48  93 E8        29.94F FOG
SHERBROOKE     LGT RAIN  61  57  88 E13       29.89S

_____REGIONAL ONTARIO LOCATIONS_____


CITY           SKY/WX    TMP DP  RH WIND       PRES   REMARKS
OTTAWA         PTSUNNY   63  54  72 NE9       29.81F

______KEY______
VSB  - VISIBILITY IN MILES
WCI  - WIND CHILL INDEX
HX   - HEAT INDEX
$$
NNNN




USA.gov is the U.S. government's official web portal to all federal, state and local government web resources and services.